Terminal Aerodrome Forecast
Issued by NWS

Home | Current Version | Previous Version | Text Only | Print | Product List | Glossary On
Versions: 1 2 3 4 5 6 7 8 9 10 11 12 13 14 15 16 17 18 19 20 21 22 23 24 25 26 27 28
000
FTUS43 KAPX 050009 AAB
TAFTVC
TAF AMD
KTVC 050009Z 0500/0524 31010KT P6SM -SHSN BKN035
      TEMPO 0500/0502 2SM -SHSN BKN025
     FM050200 32008KT P6SM VCSH BKN035
     FM050500 VRB03KT P6SM SCT035
     FM051600 28007KT P6SM VCSH BKN035=

USA.gov is the U.S. government's official web portal to all federal, state and local government web resources and services.